Location: Vihti�l�
(61.3833°N, 23.0667°E)
Time: 03:41:10
(UTC+00:00)

CZ-2C R/B - Pass Details

Date: 29 November 2020
Orbit: 668 x 784 km, 98.2° (Epoch: 19 January)

Event Time Altitude Azimuth Distance (km) Brightness Sun altitude
Rises 04:28:08 0° 17° (NNE) 3,059 5.7 -17.4°
Reaches altitude 10° 04:30:40 10° 5° (N) 2,128 4.7 -17.1°
Enters shadow 04:34:24 27° 311° (NW) 1,305 3.2 -16.7°
